Vorticity
nan nan nan nan nan nan nan nan nan nan nan nan nan nan nan nan nan nan nan nan nan nan nan nan nan nan nan nan nan nan nan nan nan nan nan nan nan nan nan nan nan nan nan nan nan nan nan nan nan nan nan nan nan nan nan nan nan nan nan nan nan nan nan nan nan nan nan nan nan nan nan nan nan nan nan nan nan nan nan nan nan nan nan nan nan nan
nan 10 12 13 10 8 8 11 11 10 8 7 7 7 4 4 6 9 12 12 11 11 10 10 10 10 9 12 14 14 13 12 11 10 10 10 9 9 9 8 7 7 6 6 6 7 7 8 8 9 10 11 12 13 14 14 14 13 12 11 10 9 8 6 5 5 5 5 5 6 7 8 9 11 12 12 11 10 9 8 8 8 10 13 15 nan
nan 10 10 12 11 7 6 11 13 12 10 9 7 4 3 8 11 11 10 11 12 11 9 7 7 9 11 13 15 14 14 14 13 12 12 12 12 12 12 11 10 8 7 6 6 7 7 8 8 9 9 10 11 11 12 12 12 11 11 11 10 10 9 9 8 8 7 8 8 8 9 9 10 11 13 12 10 9 8 7 7 9 12 15 16 nan
nan 9 9 11 11 9 6 9 11 13 13 11 9 7 10 14 14 11 9 8 9 9 9 7 6 7 11 13 14 15 15 15 15 14 14 14 15 16 16 15 13 11 9 7 7 7 7 7 8 8 9 9 9 10 10 10 10 10 9 9 9 9 9 9 9 9 10 10 11 11 11 10 10 11 11 11 10 8 7 7 8 10 14 17 17 nan
nan 9 10 11 11 11 11 10 10 11 10 10 11 12 15 14 12 10 9 10 10 10 11 11 10 9 8 10 11 13 15 16 17 16 16 17 17 18 19 18 16 14 11 9 8 7 7 7 8 8 8 9 9 9 9 9 9 9 8 8 8 8 9 9 9 10 10 11 11 12 12 11 10 10 10 11 10 9 7 7 8 11 15 17 16 nan
nan 10 10 10 10 10 12 11 10 10 10 11 12 13 14 12 10 9 9 11 12 12 12 12 12 11 8 7 8 11 14 16 17 18 18 18 18 18 18 17 16 14 12 10 9 8 7 7 8 8 8 8 8 8 8 8 8 8 8 8 8 8 8 9 9 9 10 10 11 11 11 10 10 9 11 12 11 10 9 8 10 13 16 17 15 nan
nan 9 9 9 9 9 10 10 10 10 10 11 13 13 13 12 11 10 9 9 10 11 11 11 11 12 11 9 10 11 14 16 18 20 20 19 17 16 15 14 13 12 11 10 10 9 8 8 8 8 8 8 8 8 8 8 8 8 8 9 8 9 9 9 9 9 9 9 9 9 9 9 9 10 12 13 13 13 11 11 11 13 15 15 13 nan
nan 8 8 8 8 9 9 10 10 10 10 10 10 11 11 10 11 11 12 11 10 10 11 11 11 11 12 12 13 13 14 15 17 20 22 23 22 20 17 14 12 10 10 9 9 9 9 8 8 8 8 8 8 8 8 8 8 8 9 9 9 9 9 9 8 8 8 7 7 7 7 7 9 11 13 14 15 14 14 14 14 14 14 13 11 nan
nan 8 8 9 9 9 10 10 10 9 9 9 9 9 9 8 8 9 11 12 12 12 11 11 10 10 11 12 13 14 13 12 12 13 15 19 21 21 21 19 17 15 12 10 9 8 8 8 8 8 8 8 8 8 8 8 9 9 9 9 9 9 9 8 8 8 7 6 6 5 5 6 8 10 12 13 14 14 15 16 17 16 14 12 10 nan
nan 10 11 11 11 11 10 10 10 10 10 10 9 9 8 8 8 8 8 9 10 11 10 10 9 10 11 13 13 14 14 15 14 12 10 10 12 14 17 19 21 22 18 14 12 10 9 8 8 8 8 9 9 9 9 9 9 10 9 9 9 9 9 8 8 7 6 6 5 5 6 6 7 9 11 12 12 12 14 17 19 19 16 13 10 nan
nan 13 13 13 12 12 10 9 10 11 12 12 11 11 9 10 10 10 8 9 8 8 8 9 10 10 10 12 13 13 13 15 18 19 17 14 12 12 14 16 18 21 22 19 17 14 11 9 9 9 10 10 10 10 10 10 10 10 10 9 9 9 8 8 8 7 7 6 6 6 7 7 8 9 10 11 11 11 13 16 19 21 19 15 12 nan
nan 13 13 11 11 10 11 10 11 12 13 13 12 12 12 13 12 12 12 10 9 9 9 9 10 9 8 9 11 13 12 12 14 17 19 18 17 16 15 15 16 18 22 23 22 21 17 13 11 10 11 12 12 11 10 10 11 11 10 9 9 8 8 8 8 7 7 6 7 7 8 9 9 9 10 11 11 11 12 15 18 20 20 18 14 nan
nan 10 9 9 9 9 10 10 11 11 10 11 11 11 13 13 12 12 12 11 10 9 10 9 9 9 9 9 9 10 10 10 10 12 13 13 13 13 13 13 14 16 18 19 21 25 25 21 18 15 13 13 14 14 12 10 11 11 10 9 8 8 8 8 8 8 7 7 7 8 9 10 10 10 11 12 12 12 13 15 16 17 18 17 16 nan
nan 8 8 8 9 9 9 9 8 8 8 9 9 9 10 10 10 10 11 11 10 10 10 9 8 8 10 10 9 8 9 9 10 10 8 9 9 8 9 11 12 13 13 13 14 18 22 21 21 23 22 17 16 16 15 14 13 11 9 9 8 8 8 7 8 8 8 7 8 8 9 10 10 11 12 13 14 14 14 15 15 14 14 15 15 nan
nan 9 8 8 8 8 8 9 9 9 8 8 8 8 9 9 10 11 11 10 11 12 12 11 10 10 10 11 10 10 10 10 9 8 7 8 9 8 7 9 11 12 12 11 12 15 16 14 15 20 25 22 18 16 16 16 16 12 9 9 8 8 8 8 8 8 7 8 8 8 9 10 10 11 13 14 16 16 16 15 14 12 11 12 13 nan
nan 8 8 8 8 8 8 8 9 9 9 9 9 9 10 10 11 12 12 13 14 16 15 13 13 14 15 13 13 13 13 12 9 7 8 9 11 12 10 8 8 9 10 10 11 12 14 13 13 15 21 24 21 17 14 15 16 13 10 10 9 8 8 8 8 7 7 8 8 8 9 10 10 11 13 15 17 18 17 15 14 12 10 11 12 nan
nan 8 8 8 9 8 8 8 9 9 9 10 10 10 9 10 10 11 12 14 15 15 14 15 16 16 16 16 18 20 18 13 10 9 9 10 12 14 13 8 7 6 7 8 8 9 10 11 11 12 18 23 22 19 15 14 14 13 11 10 9 9 8 8 8 8 8 8 8 9 9 10 11 12 13 15 17 18 18 16 15 13 11 11 11 nan
nan 9 9 9 9 9 9 9 10 10 9 10 10 10 8 9 9 9 8 9 9 9 10 14 15 13 10 11 16 24 22 13 9 8 9 10 12 15 16 11 8 6 4 6 8 8 7 8 8 8 14 20 20 19 16 14 13 13 12 11 10 9 8 8 8 8 8 8 9 9 10 11 12 13 14 15 16 17 17 16 15 14 13 12 12 nan
nan 8 9 9 9 8 7 8 8 9 9 9 8 9 9 10 9 8 7 6 6 6 7 7 7 7 7 7 10 17 19 13 9 8 8 8 10 12 16 15 12 10 7 7 8 9 8 8 10 10 12 15 17 17 16 15 14 13 12 11 10 9 9 8 9 9 9 9 9 10 12 13 15 16 17 17 17 16 15 14 14 13 12 12 12 nan
nan 8 8 7 8 9 11 10 8 6 5 6 7 8 9 10 9 9 9 9 9 8 8 6 5 5 8 8 9 11 13 12 10 10 10 10 10 10 13 14 12 11 9 8 8 9 10 10 12 16 16 14 15 16 16 15 14 13 12 11 11 10 9 9 9 9 9 9 10 11 13 15 17 19 20 20 19 17 15 13 13 12 11 11 11 nan
nan 8 6 4 6 9 11 9 6 3 2 4 7 10 11 10 10 9 9 8 8 8 8 8 8 7 6 6 7 9 12 13 11 10 13 13 12 11 14 14 12 10 9 9 9 9 10 11 11 15 18 17 16 16 16 16 15 13 12 12 11 10 9 9 9 10 10 10 11 12 13 15 17 19 21 21 19 17 15 13 12 11 11 10 10 nan
nan 8 8 7 6 6 6 5 6 6 7 9 10 10 11 10 9 8 8 8 8 8 8 8 7 6 3 4 3 5 9 11 9 9 13 14 13 11 14 15 13 12 11 11 10 10 10 10 10 12 17 18 16 16 17 17 16 14 12 11 11 10 9 9 10 10 10 11 11 12 13 14 16 17 18 18 18 16 15 13 12 11 10 10 9 nan
nan 7 10 13 12 9 8 10 12 15 17 15 13 10 10 9 8 8 10 10 9 9 10 9 8 7 6 5 3 4 4 7 9 12 14 16 15 12 11 14 13 13 12 11 11 11 10 10 11 13 20 20 16 15 17 18 18 16 13 11 10 9 9 9 10 10 11 11 11 12 12 12 13 13 14 14 14 14 13 12 11 11 10 10 9 nan
nan 8 11 12 10 8 7 8 9 11 13 13 13 13 11 10 9 10 10 10 10 11 12 11 10 10 10 8 7 8 7 8 9 12 11 16 17 14 11 13 13 12 11 11 11 10 10 11 11 12 20 23 18 15 16 18 19 18 15 12 10 9 9 9 10 10 11 11 11 11 11 11 10 10 10 10 10 10 11 11 10 10 10 9 9 nan
nan 3 2 -1 -5 -9 -11 -12 -11 -11 -10 -3 3 8 10 11 12 13 12 12 13 13 12 12 12 12 13 13 12 12 14 12 9 8 8 13 15 16 13 13 13 11 11 12 12 11 10 10 10 11 14 21 21 17 15 17 20 21 18 14 12 10 10 9 10 11 11 12 11 11 10 10 9 8 7 7 8 8 9 9 9 9 9 9 9 nan
nan -11 -15 -16 -16 -16 -17 -18 -18 -20 -21 -18 -13 -7 -1 5 9 11 11 13 13 12 11 13 14 13 13 14 13 12 14 13 11 7 5 7 10 13 12 11 11 10 9 12 14 13 10 10 10 10 11 18 22 21 16 16 18 20 20 17 15 12 11 10 10 11 11 12 12 11 10 9 8 7 6 6 7 8 8 8 8 8 7 7 7 nan
nan -7 -8 -7 -4 -2 -0 -1 -3 -4 -5 -10 -16 -18 -11 -0 5 6 6 8 8 8 9 12 13 15 16 14 12 11 10 11 11 8 4 4 7 9 9 7 7 7 9 13 16 17 13 11 11 10 9 13 19 23 21 16 16 17 19 20 17 15 13 11 11 11 11 12 12 11 11 10 8 7 6 6 7 7 8 9 8 6 3 2 3 nan
nan 11 11 11 11 11 11 11 12 12 11 6 -1 -4 -1 5 7 7 6 5 5 6 8 9 10 12 14 13 12 12 11 11 9 9 7 7 9 9 9 6 7 8 12 14 16 18 16 13 13 11 10 10 14 20 24 21 19 18 20 20 19 18 15 13 12 11 11 11 11 11 11 10 9 8 7 6 7 8 8 8 6 1 -4 -5 -2 nan
nan 23 21 20 19 18 19 21 22 23 21 18 16 15 12 10 9 8 8 7 7 8 8 7 6 6 7 10 12 15 16 14 12 10 10 9 10 11 11 9 10 10 14 13 12 14 15 15 15 13 13 12 11 14 22 25 23 23 26 26 23 21 18 15 13 12 11 11 11 11 10 10 10 9 8 7 7 8 8 6 0 -7 -8 -2 2 nan
nan 24 26 25 25 25 27 28 30 30 29 28 26 24 18 12 10 9 11 11 11 11 10 7 6 4 4 8 12 16 18 17 16 14 10 9 11 13 14 12 13 12 12 9 8 9 13 15 16 15 14 13 11 11 15 20 21 23 30 34 31 29 24 18 14 13 12 11 11 10 10 10 10 9 9 8 8 8 8 2 -7 -12 -6 4 7 nan
nan 19 22 23 24 25 26 26 27 28 31 33 33 29 21 13 11 12 13 13 13 13 12 10 9 7 5 7 9 10 13 16 16 15 10 8 11 14 16 15 15 15 11 6 3 4 9 13 16 17 15 13 12 11 11 12 14 17 22 27 32 38 34 24 17 15 14 13 11 10 10 10 10 10 9 9 9 8 6 -2 -10 -12 -3 7 9 nan
nan 16 16 17 18 19 19 18 18 19 23 27 28 26 20 15 12 11 13 13 12 12 13 12 12 11 9 6 4 4 5 9 11 13 9 7 11 15 16 15 14 15 14 10 4 1 5 10 14 17 16 14 12 13 12 10 10 13 17 19 24 37 39 26 18 14 17 19 16 12 9 9 10 10 9 9 9 8 5 -2 -9 -11 -2 7 10 nan
nan 12 11 12 12 13 12 11 11 12 14 16 17 17 17 16 14 11 10 10 10 10 10 11 12 13 12 10 7 4 2 4 8 10 8 5 8 13 14 13 12 12 14 15 11 6 6 8 10 14 15 13 13 13 13 12 11 12 16 17 19 29 34 25 18 14 18 22 22 20 14 11 11 10 9 9 8 7 5 -0 -6 -9 -4 5 10 nan
nan 11 9 10 11 11 10 9 9 9 10 11 11 11 13 14 14 13 11 10 9 9 9 9 10 11 12 12 11 9 7 6 8 11 11 5 5 8 9 11 11 12 13 15 14 12 11 10 8 9 13 13 12 10 11 12 12 13 16 18 18 21 25 23 18 17 17 17 19 24 22 19 19 12 9 9 9 8 6 1 -3 -5 -5 0 7 nan
nan 12 11 12 12 12 11 11 11 10 9 10 11 11 10 11 12 13 13 12 11 10 9 9 9 9 9 10 10 10 9 9 10 11 11 7 5 5 8 10 11 12 11 12 12 11 13 13 8 6 9 12 11 9 8 10 11 13 17 20 19 18 19 19 16 17 16 14 14 18 20 20 21 18 16 17 14 13 9 4 0 -1 -1 0 2 nan
nan 12 13 13 13 13 13 13 13 12 11 11 12 11 10 10 10 11 12 13 13 12 10 8 8 8 7 7 8 8 8 9 10 10 8 8 7 7 9 11 11 10 9 9 9 10 11 13 10 8 7 8 9 8 7 8 10 13 17 20 19 18 18 17 16 15 14 13 13 14 16 17 17 18 25 28 21 16 12 6 3 1 2 3 3 nan
nan 13 14 14 13 13 13 14 13 13 12 12 12 11 10 10 9 9 10 11 11 10 11 11 11 9 3 1 2 3 4 5 6 6 4 4 6 7 8 10 10 9 8 8 8 9 10 10 10 9 8 7 8 9 9 8 10 12 16 17 16 16 17 17 16 14 13 13 12 12 14 15 15 17 27 28 19 15 12 7 3 3 4 5 6 nan
nan 12 12 11 11 12 13 14 13 13 13 12 12 12 12 11 10 9 10 11 10 8 9 11 13 15 11 4 1 -0 0 2 5 7 6 4 4 5 4 5 9 10 10 9 9 9 9 8 7 6 7 9 9 11 11 10 10 10 12 12 13 14 15 15 15 13 14 14 13 12 11 11 12 15 18 16 11 10 10 11 11 11 8 7 8 nan
nan 10 10 9 10 10 11 11 11 12 12 11 11 11 12 14 14 13 11 12 13 12 9 7 9 13 18 15 11 6 4 8 10 13 15 13 11 8 3 3 8 12 13 12 11 9 7 7 6 5 6 8 10 11 11 11 11 10 9 8 10 12 13 14 14 13 14 14 12 9 7 9 11 13 13 11 10 9 9 11 13 12 8 6 10 nan
nan 11 11 12 11 10 9 9 9 10 10 12 12 13 14 15 17 17 16 15 15 16 15 12 10 11 14 15 15 14 10 10 11 10 14 16 14 11 8 6 7 9 12 14 14 12 9 7 7 7 6 6 9 10 10 11 12 12 7 4 8 12 13 12 13 13 14 13 11 8 8 11 13 13 12 12 10 9 8 10 12 13 9 5 7 nan
nan 11 12 13 12 12 11 11 10 9 10 12 14 15 14 13 14 15 16 16 16 15 16 15 13 13 14 16 17 18 16 13 12 9 10 12 12 10 9 8 7 8 10 13 15 17 14 9 7 8 8 8 10 10 11 14 14 12 4 2 8 12 14 11 10 11 13 13 13 12 12 11 11 11 11 10 9 9 11 12 13 12 9 8 9 nan
nan 12 12 11 12 12 12 13 13 14 15 14 14 12 11 11 10 10 11 12 12 12 11 12 12 12 13 16 19 22 22 19 17 13 11 12 12 9 5 4 5 7 9 10 13 16 18 16 13 11 10 9 8 8 13 17 15 11 5 5 8 8 8 9 8 11 12 12 14 15 12 8 9 10 10 8 8 10 13 16 16 12 7 8 10 nan
nan 13 11 11 13 15 17 19 20 20 18 16 13 11 9 8 8 8 9 10 9 9 10 11 10 10 9 11 14 18 22 21 19 15 14 14 13 10 5 2 2 3 4 7 12 17 24 23 19 15 13 11 9 9 12 14 13 12 11 9 5 1 4 10 11 12 12 12 12 12 10 10 11 11 10 8 9 11 15 16 15 11 7 7 10 nan
nan 11 11 12 12 13 14 15 15 14 13 12 11 11 10 9 9 9 10 10 10 10 10 10 11 11 11 11 12 14 17 20 22 21 18 14 10 8 9 9 7 5 3 4 8 13 19 21 19 17 15 13 11 10 11 13 13 11 13 12 8 4 6 12 14 11 10 11 11 11 11 11 11 10 10 10 11 12 13 12 12 12 11 9 11 nan
nan 11 10 9 8 6 5 6 8 10 11 11 11 11 11 12 13 12 10 9 10 11 10 9 9 12 13 13 12 12 13 16 19 21 22 20 15 12 12 13 13 12 11 8 7 6 7 12 14 14 15 16 14 13 12 12 12 11 12 11 8 7 10 14 14 11 10 10 9 10 11 10 10 9 10 11 12 12 13 13 11 11 10 11 13 nan
nan 10 10 10 9 9 9 10 10 11 11 11 11 11 12 14 15 15 12 10 10 11 10 8 7 7 9 9 10 10 11 12 13 15 18 20 21 21 19 16 13 12 13 13 11 6 3 5 8 9 11 14 14 14 14 13 12 11 11 10 7 8 11 13 12 11 10 10 10 12 11 8 7 9 11 11 11 10 11 12 11 10 10 11 13 nan
nan 11 11 11 11 11 12 12 11 11 10 10 10 10 11 12 13 13 14 12 11 11 11 10 9 8 7 8 9 9 9 10 11 11 12 16 18 19 18 17 16 12 11 12 13 10 7 8 9 8 7 8 10 13 15 14 13 11 10 9 8 8 9 12 12 11 10 11 13 14 10 4 4 9 11 9 9 8 9 11 12 12 12 11 12 nan
nan 12 12 12 11 11 11 11 11 10 9 9 10 10 11 10 9 8 11 12 11 11 11 11 11 11 11 11 10 10 9 9 10 11 11 13 14 15 14 15 17 17 15 15 15 14 15 15 13 10 5 4 7 11 14 14 13 12 11 10 9 8 9 11 12 11 11 14 15 13 6 3 6 9 8 7 8 8 9 10 11 12 13 12 12 nan
nan 12 12 13 13 12 12 11 11 10 10 9 10 11 12 13 12 10 10 12 11 10 11 11 11 11 12 12 11 10 9 10 11 12 12 12 12 13 14 15 15 15 17 19 21 20 21 22 18 15 11 9 9 11 12 12 12 11 11 11 10 9 9 11 12 11 12 15 14 10 5 5 9 10 8 9 9 9 8 8 9 11 12 13 12 nan
nan 11 11 12 12 12 12 12 12 11 11 11 11 11 12 14 16 15 12 12 11 11 11 12 12 11 11 10 8 8 9 10 11 12 11 11 12 12 12 13 14 15 16 20 21 19 18 18 16 16 20 23 21 17 12 12 11 11 10 10 10 10 10 11 12 12 13 13 12 10 6 5 8 9 9 11 10 9 7 8 9 9 11 13 13 nan
nan nan nan nan nan nan nan nan nan nan nan nan nan nan nan nan nan nan nan nan nan nan nan nan nan nan nan nan nan nan nan nan nan nan nan nan nan nan nan nan nan nan nan nan nan nan nan nan nan nan nan nan nan nan nan nan nan nan nan nan nan nan nan nan nan nan nan nan nan nan nan nan nan nan nan nan nan nan nan nan nan nan nan nan nan nan
CAPE
2 2 5 21 21 8 1 1 2 2 0 2 0 0 0 4 18 18 7 7 7 12 7 15 15 14 nan nan nan nan nan nan nan nan nan nan nan nan nan nan nan nan nan nan nan nan nan nan nan nan nan nan nan nan 16 33 33 57 91 111 111 125 139 131 131 124 102 56 47 47 38 33 29 29 22 22 29 29 61 86 86 111 131 149 149 150
nan nan 9 28 28 22 5 2 2 2 0 0 nan nan nan 0 6 6 8 10 10 18 11 9 9 10 10 nan nan nan nan nan nan nan nan nan nan nan nan nan nan nan nan nan nan nan nan nan nan nan nan nan nan nan 1 12 12 27 40 55 55 79 104 114 114 124 102 68 46 46 34 24 16 16 12 19 36 36 72 95 95 118 140 150 150 156
nan nan 11 33 33 33 9 4 1 1 1 nan nan nan nan nan 0 0 2 5 5 12 13 11 11 9 10 0 nan nan nan nan nan nan nan nan nan nan nan nan nan nan nan nan nan nan nan nan nan nan nan nan nan nan nan nan nan 2 7 13 13 20 26 48 48 52 50 33 25 25 14 4 4 4 7 26 64 64 92 106 106 118 142 149 149 162
2 1 2 11 11 24 14 10 13 13 15 6 2 2 2 1 1 1 2 1 1 5 9 9 9 10 18 8 nan nan nan nan nan nan nan nan nan nan nan nan nan nan nan nan nan nan nan nan nan nan nan nan nan nan nan nan nan nan nan nan nan nan 0 6 6 8 7 3 1 1 nan nan nan nan 5 39 68 68 91 99 99 112 136 155 155 159
3 0 0 4 4 7 15 21 31 31 29 25 15 15 8 5 2 2 1 1 1 3 2 2 2 5 9 14 4 4 nan nan nan nan nan 0 0 0 nan nan nan nan nan nan nan nan nan nan nan nan nan nan nan nan nan nan nan nan nan nan nan nan nan nan nan nan nan nan nan nan nan nan nan nan 1 26 64 64 86 98 98 101 115 133 133 156
nan nan nan 0 0 nan 4 15 27 27 36 33 27 27 14 6 2 2 1 1 1 0 nan nan nan 0 2 12 5 5 nan nan nan nan 0 1 0 0 nan nan nan nan nan nan nan nan nan nan nan nan nan nan nan nan nan nan nan nan nan nan nan nan nan nan nan nan nan nan nan nan nan nan nan nan nan 11 47 47 89 96 96 101 101 112 112 144
nan nan nan nan nan nan nan 1 5 5 12 18 23 23 15 14 6 6 2 0 0 0 nan nan nan nan 1 3 5 5 2 nan nan nan 1 1 1 1 nan nan nan nan nan nan nan nan nan nan nan nan nan nan nan nan nan nan nan nan nan nan nan nan nan nan nan nan nan nan nan nan nan nan nan nan nan 1 28 28 65 99 99 106 98 94 94 117
nan nan 3 1 1 1 1 2 5 5 10 14 13 13 16 14 13 13 20 20 20 6 1 0 0 0 0 2 3 3 9 10 8 8 1 1 2 2 1 0 0 0 0 nan nan nan nan nan nan nan nan nan nan nan nan nan nan nan nan nan nan nan nan nan nan nan nan nan nan nan nan nan nan nan nan nan nan nan 3 77 77 126 113 97 97 106
nan nan nan nan nan nan nan nan 4 4 15 20 19 19 15 10 10 10 14 12 12 10 5 2 2 0 nan 0 2 2 5 12 12 12 8 5 4 4 3 2 2 1 0 0 0 0 nan nan nan nan nan nan nan nan nan nan nan nan nan nan nan nan nan nan nan nan nan nan nan nan nan nan nan nan nan nan nan nan nan 17 17 91 113 104 104 121
nan nan nan nan nan nan nan nan 2 2 27 29 40 40 38 21 16 16 11 9 9 9 7 10 10 2 0 1 5 5 6 13 11 11 7 nan 1 1 nan nan nan 2 nan 0 0 nan nan nan nan nan nan nan nan nan nan nan nan nan nan nan nan nan nan nan nan nan nan nan nan nan nan nan nan nan nan nan nan nan nan nan nan 27 66 103 103 122
nan nan nan nan nan nan nan 0 4 4 30 35 37 37 38 31 34 34 27 22 22 14 7 10 10 8 4 2 3 3 4 12 15 15 12 nan nan nan nan nan nan nan nan nan nan nan nan nan nan nan nan nan nan nan nan nan nan nan nan nan nan nan nan nan nan nan nan nan nan nan nan nan nan nan nan nan nan nan nan nan nan 0 8 60 60 107
nan nan nan nan nan nan nan nan 15 15 47 37 17 17 13 23 51 51 48 38 38 27 21 15 15 15 15 4 3 3 3 10 20 20 16 4 1 1 nan nan nan nan nan nan nan nan nan nan nan nan nan nan nan nan nan nan nan nan nan nan nan nan nan nan nan nan nan nan nan nan nan nan nan nan nan nan nan nan nan nan nan nan nan 8 8 79
nan nan nan nan nan nan nan nan nan nan 5 14 18 18 16 17 46 46 62 54 54 40 30 29 29 24 21 18 13 13 11 15 19 19 15 9 2 2 0 nan nan nan 0 1 1 1 nan nan nan nan nan nan nan nan nan nan nan nan nan nan nan nan nan nan nan nan nan nan nan nan nan nan nan nan nan nan nan nan nan nan nan nan nan 1 1 41
nan nan nan nan nan nan nan nan nan nan nan nan 4 4 14 23 43 43 52 45 45 44 40 33 33 26 15 14 19 19 17 20 24 24 19 19 9 9 1 1 1 1 0 1 1 1 0 nan nan nan nan nan nan nan nan nan nan nan nan nan nan nan nan nan nan nan nan nan nan nan nan nan nan nan nan nan nan nan nan nan nan nan nan nan nan 17
nan nan nan nan nan nan nan nan nan nan nan nan nan nan 1 9 32 32 45 44 44 45 45 44 44 37 14 11 15 15 18 23 20 20 21 18 20 20 7 4 4 5 4 2 2 2 2 0 0 1 0 nan nan nan nan nan nan nan nan nan nan nan nan nan nan nan nan nan nan nan nan nan nan nan nan nan nan nan nan nan nan nan nan nan nan 2
1 0 nan nan nan nan nan nan nan nan nan nan nan nan 3 12 25 25 43 50 50 53 47 47 47 39 19 12 12 12 21 27 17 17 17 16 15 15 14 9 9 5 8 7 7 6 7 5 5 4 4 nan nan nan nan nan nan nan nan nan nan nan nan nan nan nan nan nan nan nan nan nan nan nan nan nan nan nan nan nan nan nan nan nan nan nan
10 9 5 1 1 nan nan nan nan nan nan nan 1 1 10 16 27 27 46 75 75 95 99 59 59 43 26 23 27 27 48 36 28 28 20 11 11 11 22 15 15 8 11 13 13 10 7 10 10 9 5 nan nan nan nan nan nan nan nan nan nan nan nan nan nan nan nan nan nan nan nan nan nan nan nan nan nan nan nan nan nan nan nan nan nan nan
23 19 9 8 8 0 nan nan nan nan 0 nan 1 1 5 9 26 26 74 131 131 129 116 105 105 83 60 33 50 50 86 46 32 32 23 10 14 14 42 26 26 15 13 12 12 11 12 13 13 18 7 nan nan nan nan nan nan nan nan nan nan nan nan nan nan nan nan nan nan nan nan nan nan nan nan nan nan nan nan nan nan nan nan nan nan nan
21 17 13 7 7 3 0 nan 0 0 0 1 2 2 3 6 15 15 28 53 53 76 87 101 101 105 114 74 81 81 90 57 45 45 31 15 12 12 46 36 36 18 17 13 13 10 14 12 12 8 0 nan nan nan nan nan nan nan nan nan nan nan nan nan nan nan nan nan nan nan nan nan nan nan nan nan nan nan nan nan nan nan nan nan nan nan
20 16 16 12 12 11 7 5 3 3 1 4 5 5 5 6 7 7 9 19 19 35 56 76 76 80 98 102 92 92 70 61 44 44 36 23 12 12 30 37 37 18 23 16 16 16 17 15 15 7 nan nan nan nan nan nan nan nan nan nan nan nan nan nan nan nan nan nan nan nan nan nan nan nan nan nan nan nan nan nan nan nan nan nan nan nan
24 22 16 13 13 13 8 9 9 9 8 14 16 16 12 10 7 7 6 13 13 19 30 39 39 50 82 104 125 125 91 75 47 47 34 23 20 20 30 31 31 24 25 19 19 14 17 19 19 18 6 0 nan nan nan nan nan nan nan nan nan nan nan nan nan nan nan nan nan nan nan nan nan nan nan nan nan nan nan nan nan nan nan nan nan nan
23 19 15 16 16 15 16 15 15 15 19 25 21 21 18 15 13 13 12 12 12 15 22 33 33 37 56 59 89 89 91 99 95 95 54 29 21 21 34 33 33 27 24 17 17 15 23 26 26 22 15 3 nan nan nan nan nan nan nan nan nan nan nan nan nan nan nan nan nan nan nan nan nan nan nan nan nan nan nan nan nan nan nan nan nan nan
24 21 18 19 19 20 18 20 23 23 26 33 32 32 24 20 17 17 15 16 16 18 20 27 27 36 45 27 6 6 12 89 103 103 93 52 33 33 35 30 30 17 18 18 18 17 25 26 26 22 13 5 2 2 nan nan nan nan nan nan nan nan nan nan nan nan nan nan nan nan nan nan nan nan nan nan nan nan nan nan nan nan nan nan nan nan
40 33 28 28 28 36 40 36 45 45 48 48 46 46 27 24 22 22 14 16 16 23 27 34 34 40 39 30 7 7 nan 15 105 105 101 77 60 60 28 19 19 8 12 16 16 16 26 24 24 23 14 3 2 2 2 0 0 nan nan nan nan nan nan nan nan nan nan nan nan nan nan nan nan nan nan nan nan nan nan nan nan nan nan nan nan nan
26 32 35 30 30 39 46 66 94 94 80 86 78 78 51 49 55 55 59 46 46 47 43 51 51 52 41 34 16 16 3 5 43 43 103 101 118 118 67 10 10 2 9 15 15 23 27 23 23 20 17 5 2 2 2 0 0 nan nan nan nan nan nan nan nan nan nan nan nan nan nan nan nan nan nan nan nan nan nan nan nan nan nan nan nan nan
19 20 19 20 20 39 51 59 60 60 60 50 64 64 96 95 90 90 68 67 67 82 86 68 68 64 45 29 14 14 11 13 29 29 69 80 82 82 138 14 14 11 5 18 18 30 28 27 27 17 13 8 3 3 1 1 1 nan nan nan nan nan nan nan nan nan nan nan nan nan nan nan nan nan nan nan nan nan nan nan nan nan nan nan nan nan
33 35 36 40 40 42 48 54 59 59 69 58 30 30 29 55 57 57 57 83 83 105 96 72 72 84 63 41 24 24 13 16 19 19 40 51 67 67 127 69 69 35 9 19 19 35 21 22 22 15 8 7 6 6 2 1 1 nan nan nan nan nan nan nan nan nan nan nan nan nan nan nan nan nan nan nan nan nan nan nan nan nan nan nan nan nan
35 38 38 41 41 42 47 52 57 57 60 65 70 70 45 32 31 31 40 41 41 73 68 73 73 91 88 56 48 48 25 16 17 17 22 45 48 48 97 132 132 101 21 17 17 18 12 15 15 14 7 7 10 10 5 1 1 nan nan nan nan nan nan nan nan nan nan nan nan nan nan nan nan nan nan nan nan nan nan nan nan nan nan nan nan nan
31 33 37 39 39 43 46 47 55 55 60 61 70 70 67 50 33 33 28 24 24 30 46 73 73 93 91 103 83 83 65 34 23 23 37 97 40 40 44 53 53 67 28 18 18 3 1 1 1 12 6 7 10 10 9 5 5 3 nan nan nan nan nan nan nan nan nan nan nan nan nan nan nan nan nan nan nan nan nan nan nan nan nan nan nan nan
21 29 30 37 37 38 42 40 47 47 57 63 68 68 65 50 37 37 28 27 27 25 29 54 54 80 97 117 120 120 114 76 50 50 108 119 52 52 47 40 40 42 13 16 16 0 0 0 0 3 3 4 7 7 10 10 10 11 7 2 2 nan nan nan nan nan nan nan nan nan nan nan nan nan nan nan nan nan nan nan nan nan nan nan nan nan
28 29 27 32 32 35 33 31 47 47 66 65 66 66 60 45 37 37 31 30 30 30 23 32 32 51 72 113 116 116 99 130 136 136 179 130 77 77 92 59 59 52 25 14 14 6 nan 1 1 2 1 2 3 3 5 12 12 17 17 10 10 2 nan nan nan nan nan nan nan nan nan nan nan nan nan nan nan nan nan nan nan nan nan nan nan nan
33 29 34 35 35 30 29 30 33 33 25 25 31 31 40 45 44 44 44 39 39 36 33 36 36 44 61 95 95 95 92 157 298 298 318 197 207 207 156 130 130 71 20 14 14 22 32 31 31 nan 0 0 nan nan 0 0 0 1 5 9 9 2 nan nan nan nan nan nan nan nan nan nan nan nan nan nan nan nan nan nan nan nan nan nan nan nan
28 24 19 24 24 20 22 17 19 19 16 17 21 21 30 39 49 49 56 48 48 35 36 51 51 73 95 87 84 84 124 175 237 237 292 197 180 180 169 117 117 47 5 5 5 15 42 80 80 nan 1 0 nan nan nan 0 0 0 nan 0 0 nan nan nan nan nan nan nan nan nan nan nan nan nan nan nan nan nan nan nan nan nan nan nan nan nan
37 39 38 34 34 27 18 18 18 18 14 17 23 23 28 27 39 39 56 48 48 38 31 38 38 84 107 93 78 78 89 168 294 294 387 228 154 154 197 138 138 67 8 1 1 nan 2 54 54 8 1 1 nan nan nan nan nan 0 nan nan nan nan nan nan nan nan nan nan nan nan nan nan 0 0 nan 0 nan nan nan nan nan nan nan nan nan nan
41 46 44 40 40 35 35 32 21 21 14 18 19 19 18 17 19 19 33 41 41 33 30 35 35 63 88 111 102 102 80 124 303 303 384 229 119 119 158 159 159 126 28 7 7 1 3 12 12 16 1 1 0 0 nan 0 0 0 0 nan nan nan nan nan nan nan nan nan nan nan nan nan nan nan nan nan nan nan nan nan nan nan nan nan nan nan
41 35 42 44 44 52 47 38 26 26 19 14 14 14 13 10 12 12 17 29 29 37 34 27 27 44 76 116 142 142 107 110 206 206 342 282 138 138 114 193 193 195 81 34 34 14 8 8 8 11 4 2 1 1 nan 0 0 0 0 nan nan nan nan nan nan nan nan nan nan nan nan nan nan nan nan nan nan nan 0 0 0 nan nan nan nan nan
55 49 50 51 51 55 46 35 17 17 14 7 12 12 9 9 11 11 19 25 25 46 47 59 59 76 108 136 161 161 175 167 235 235 351 350 227 227 123 142 142 159 96 57 57 39 22 6 6 5 5 2 2 2 nan 0 0 0 nan nan nan nan nan nan nan nan nan nan nan nan nan nan nan nan nan 0 0 0 2 2 2 0 nan nan nan nan
58 56 61 40 40 39 28 22 17 17 17 15 13 13 12 17 20 20 24 21 21 37 50 71 71 106 175 182 208 208 243 279 253 253 334 339 252 252 181 118 118 87 88 86 86 64 40 8 8 3 3 2 1 1 1 nan nan nan nan nan nan nan nan nan nan nan nan nan nan nan nan nan nan nan nan nan nan nan nan 1 1 2 0 0 0 nan
39 37 32 18 18 17 16 14 17 17 22 23 21 21 23 31 40 40 38 36 36 47 58 58 58 105 37 43 160 160 156 36 6 6 34 22 130 130 233 170 170 137 120 119 119 93 65 48 48 17 5 3 1 1 0 nan nan nan nan nan nan nan nan nan nan nan nan nan nan nan nan nan nan nan nan nan nan nan nan nan nan 2 0 0 0 2
17 17 19 16 16 13 9 11 12 12 12 22 33 33 39 46 53 53 60 73 73 78 65 72 72 113 80 101 128 128 89 40 57 57 16 nan 15 15 185 187 187 189 182 153 153 128 89 89 89 60 15 4 1 1 nan nan nan nan nan nan nan nan nan nan nan nan nan nan nan nan nan nan nan nan nan nan nan nan nan nan nan nan 0 0 0 1
23 21 16 13 13 14 12 9 7 7 10 14 21 21 40 55 69 69 87 104 104 115 100 108 108 105 136 156 142 142 107 71 105 105 52 nan 3 3 144 199 199 186 177 165 165 144 141 95 95 70 35 11 1 1 nan 0 0 0 nan nan nan nan nan nan nan nan nan nan nan nan nan nan nan nan nan nan nan nan nan nan nan nan nan 0 0 0
32 27 19 13 13 8 7 9 12 12 13 14 27 27 44 45 63 63 80 98 98 112 96 88 88 126 141 162 162 162 187 216 87 87 31 nan 7 7 151 211 211 205 165 113 113 102 117 101 101 71 39 6 nan nan nan 0 0 1 nan nan nan nan nan nan nan nan nan nan nan nan nan nan nan nan nan nan nan nan nan nan nan 0 0 nan nan 0
29 28 29 24 24 22 22 17 19 19 37 49 49 49 47 48 49 49 55 71 71 66 45 77 77 125 130 127 130 130 177 212 284 284 182 16 5 5 178 216 216 218 204 80 80 64 55 61 61 66 16 1 nan nan nan nan nan 1 0 nan nan nan nan nan nan nan nan nan nan nan nan nan nan nan nan nan nan nan nan 0 0 3 2 nan nan nan
42 44 43 52 52 60 55 43 63 63 89 84 67 67 42 41 47 47 45 63 63 59 52 58 58 104 112 87 124 124 193 287 342 342 311 240 45 45 155 201 201 187 248 68 68 51 20 22 22 37 5 nan nan nan nan nan nan 0 1 nan nan nan nan nan nan 0 nan nan 0 0 nan nan nan nan nan nan nan nan nan nan nan nan 3 1 1 0
36 27 31 35 35 23 13 30 58 58 69 79 63 63 46 44 52 52 51 68 68 59 57 59 59 96 74 83 116 116 208 255 272 272 319 264 44 44 44 137 137 208 234 96 96 35 16 16 16 23 5 nan nan nan nan nan nan 0 2 0 0 nan nan 1 1 0 nan 1 nan nan nan nan nan nan nan nan nan nan nan nan nan nan 2 2 2 1
21 15 20 17 17 15 22 30 39 39 63 75 69 69 59 62 65 65 77 80 80 73 69 95 95 96 59 98 111 111 173 230 269 269 302 310 214 214 97 89 89 144 176 96 96 39 14 6 6 11 0 nan nan nan nan nan nan 0 0 1 1 nan nan nan nan nan nan nan nan nan nan nan nan nan nan nan nan nan nan nan nan nan 1 nan nan 1
24 23 21 17 17 16 19 29 35 35 42 65 68 68 69 83 89 89 105 101 101 92 78 82 82 102 79 119 131 131 144 156 239 239 306 312 305 305 174 93 93 62 104 87 87 39 13 3 3 5 4 2 nan nan nan nan nan 0 1 1 1 0 nan nan nan nan nan 0 0 0 nan nan nan nan nan nan nan nan nan nan nan nan 1 nan nan nan
32 36 29 27 27 26 27 27 28 28 30 39 42 42 59 78 111 111 132 138 138 124 116 121 121 103 111 161 179 179 217 170 215 215 272 290 298 298 193 94 94 52 85 74 74 32 12 0 0 2 4 1 nan nan 0 1 1 2 1 1 1 nan nan 0 0 nan nan nan 0 0 0 nan nan nan nan nan nan nan nan nan nan nan nan nan nan nan
47 43 38 38 38 37 32 26 27 27 28 34 37 37 41 59 100 100 124 151 151 144 113 105 105 88 132 188 201 201 256 245 258 258 264 296 280 280 197 120 120 108 102 84 84 51 36 22 22 24 5 2 0 0 1 2 2 4 2 0 0 nan nan 0 0 0 nan nan nan nan nan nan nan nan nan nan nan nan nan nan nan nan nan nan nan nan
37 41 48 51 51 41 31 29 27 27 26 30 37 37 43 55 65 65 107 142 142 149 103 80 80 122 166 180 209 209 233 249 306 306 310 302 233 233 176 88 88 93 30 nan nan nan nan nan nan nan nan 5 1 1 1 3 3 3 2 0 0 0 nan 0 0 0 0 nan nan nan nan 0 nan nan nan nan nan nan nan nan nan nan 0 0 0 nan
26 29 33 34 34 38 38 35 34 34 35 37 45 45 47 51 76 76 109 143 143 150 151 149 149 151 173 164 183 183 167 210 262 262 290 278 199 199 141 57 57 5 nan nan nan nan 0 0 0 0 1 nan 1 1 3 3 3 1 1 1 1 0 nan 0 0 0 0 nan nan nan nan nan nan nan nan nan nan nan nan nan nan nan nan nan nan 0